SP9INZ-13 Weather Reports


Display with metric or nautical units.
time (UTC)temp
F
wind
direction
speed
MPH
gust
MPH
rain 1hr
in
rain 24hr
in
rain mn
in
humidity
%
barometer
mb
20260509004637 55 0.0 0.0 0.00 0.00 0.00 80 1022.4
20260509003040 53 0.0 0.0 0.00 0.00 0.00 81 1022.8
20260509001441 54 0.0 0.0 0.00 0.00 0.00 80 1023.1
20260508234245 54 0.0 0.0 0.00 0.00 0.00 79 1023.5
20260508232647 55 0.0 0.0 0.00 0.00 0.00 78 1023.3
20260508231049 53 0.0 0.0 0.00 0.00 0.00 82 1023.2
20260508225451 54 0.0 0.0 0.00 0.00 0.00 79 1024.0
20260508223854 54 0.0 0.0 0.00 0.00 0.00 79 1024.0
20260508222255 54 0.0 0.0 0.00 0.00 0.00 80 1023.5
20260508220657 54 0.0 0.0 0.00 0.00 0.00 80 1023.0
20260508215059 55 0.0 0.0 0.00 0.00 0.00 80 1022.6
20260508213501 55 0.0 0.0 0.00 0.00 0.00 81 1022.6
20260508211903 55 0.0 0.0 0.00 0.00 0.00 81 1022.6
20260508210305 54 0.0 0.0 0.00 0.00 0.00 82 1022.1
20260508204707 56 0.0 0.0 0.00 0.00 0.00 81 1022.2
20260508203111 56 0.0 0.0 0.00 0.00 0.00 79 1022.7
20260508201511 56 0.0 0.0 0.00 0.00 0.00 79 1022.8
20260508195913 56 0.0 0.0 0.00 0.00 0.00 78 1023.5
20260508194315 59 0.0 0.0 0.00 0.00 0.00 74 1023.9
20260508192717 58 0.0 0.0 0.00 0.00 0.00 76 1023.0
20260508191119 57 0.0 0.0 0.00 0.00 0.00 78 1023.0
20260508185521 57 0.0 0.0 0.00 0.00 0.00 77 1023.5
20260508183923 57 0.0 0.0 0.00 0.00 0.00 78 1023.1
20260508182325 57 0.0 0.0 0.00 0.00 0.00 77 1022.8
20260508180727 58 0.0 0.0 0.00 0.00 0.00 74 1023.8
20260508175129 58 0.0 0.0 0.00 0.00 0.00 74 1023.8
20260508173531 58 0.0 0.0 0.00 0.00 0.00 74 1023.7
20260508171933 58 0.0 0.0 0.00 0.00 0.00 74 1024.0
20260508170335 59 0.0 0.0 0.00 0.00 0.00 72 1024.7
20260508164737 58 0.0 0.0 0.00 0.00 0.00 73 1024.4
20260508163139 57 0.0 0.0 0.00 0.00 0.00 74 1024.6
20260508161541 59 0.0 0.0 0.00 0.00 0.00 72 1024.7
20260508155943 62 0.0 0.0 0.00 0.00 0.00 69 1025.0
20260508154344 57 0.0 0.0 0.00 0.00 0.00 74 1025.0
20260508152746 58 0.0 0.0 0.00 0.00 0.00 75 1024.4
20260508151149 56 0.0 0.0 0.00 0.00 0.00 79 1023.8
20260508145550 57 0.0 0.0 0.00 0.00 0.00 77 1024.5
20260508143952 58 0.0 0.0 0.00 0.00 0.00 78 1023.6
20260508142355 57 0.0 0.0 0.00 0.00 0.00 77 1024.4
20260508140757 58 0.0 0.0 0.00 0.00 0.00 80 1023.1
20260508135159 57 0.0 0.0 0.00 0.00 0.00 80 1023.9
20260508133601 57 0.0 0.0 0.00 0.00 0.00 80 1023.3
20260508132003 59 0.0 0.0 0.00 0.00 0.00 78 1024.5
20260508130404 56 0.0 0.0 0.00 0.00 0.00 81 1024.6
20260508124806 57 0.0 0.0 0.00 0.00 0.00 83 1023.4
20260508123208 57 0.0 0.0 0.00 0.00 0.00 82 1023.9
20260508121610 57 0.0 0.0 0.00 0.00 0.00 83 1024.9
20260508120015 54 0.0 0.0 0.00 0.00 0.00 87 1023.3
20260508114414 55 0.0 0.0 0.00 0.00 0.00 85 1023.7
20260508112818 60 0.0 0.0 0.00 0.00 0.00 80 1024.8
20260508111220 57 0.0 0.0 0.00 0.00 0.00 82 1025.0
20260508105621 57 0.0 0.0 0.00 0.00 0.00 82 1025.4
20260508104023 57 0.0 0.0 0.00 0.00 0.00 83 1026.6
20260508102425 55 0.0 0.0 0.00 0.00 0.00 83 1026.9
20260508100828 58 0.0 0.0 0.00 0.00 0.00 76 1029.6
20260508095230 56 0.0 0.0 0.00 0.00 0.00 68 1029.2
20260508093631 56 0.0 0.0 0.00 0.00 0.00 65 1030.0
20260508092033 55 0.0 0.0 0.00 0.00 0.00 60 1028.2
20260508090435 55 0.0 0.0 0.00 0.00 0.00 54 1026.2
20260508084837 55 0.0 0.0 0.00 0.00 0.00 51 1025.4
20260508083242 53 0.0 0.0 0.00 0.00 0.00 51 1025.4
20260508081642 54 0.0 0.0 0.00 0.00 0.00 53 1026.6
20260508080044 54 0.0 0.0 0.00 0.00 0.00 47 1024.7
20260508074446 53 0.0 0.0 0.00 0.00 0.00 48 1024.7
20260508072847 54 0.0 0.0 0.00 0.00 0.00 47 1025.0
20260508071249 53 0.0 0.0 0.00 0.00 0.00 48 1025.3
20260508065651 53 0.0 0.0 0.00 0.00 0.00 45 1024.2
20260508064053 53 0.0 0.0 0.00 0.00 0.00 45 1024.4
20260508062456 53 0.0 0.0 0.00 0.00 0.00 44 1024.5
20260508060857 53 0.0 0.0 0.00 0.00 0.00 44 1025.0
20260508055259 53 0.0 0.0 0.00 0.00 0.00 45 1025.2
20260508053701 52 0.0 0.0 0.00 0.00 0.00 44 1025.6
20260508052104 54 0.0 0.0 0.00 0.00 0.00 42 1025.1
20260508050506 53 0.0 0.0 0.00 0.00 0.00 39 1023.9
20260508044907 53 0.0 0.0 0.00 0.00 0.00 42 1025.5
20260508043309 53 0.0 0.0 0.00 0.00 0.00 41 1027.8
20260508041711 53 0.0 0.0 0.00 0.00 0.00 39 1025.1
20260508040113 55 0.0 0.0 0.00 0.00 0.00 39 1024.0
20260508034515 53 0.0 0.0 0.00 0.00 0.00 37 1022.3
20260508032917 53 0.0 0.0 0.00 0.00 0.00 37 1022.1
20260508031319 53 0.0 0.0 0.00 0.00 0.00 33 1021.9
20260508025721 54 0.0 0.0 0.00 0.00 0.00 25 1022.8
20260508024124 54 0.0 0.0 0.00 0.00 0.00 28 1023.4
20260508022525 54 0.0 0.0 0.00 0.00 0.00 28 1023.4
20260508020927 54 0.0 0.0 0.00 0.00 0.00 28 1023.4
20260508015330 54 0.0 0.0 0.00 0.00 0.00 28 1023.4
20260508013732 54 0.0 0.0 0.00 0.00 0.00 31 1024.1
20260508012134 54 0.0 0.0 0.00 0.00 0.00 29 1025.3
20260508010536 54 0.0 0.0 0.00 0.00 0.00 38 1024.1